,,,PA_Meas_PMT16A,,PR_Meas_QMR101_102,,RH_Meas_QMH101,,SR_Meas_QMS101,,TA_Meas_QMH101,,GenWind,,GenWind,
date,time,status,PA,status,PR,status,RH,status,SR,status,TA,status,DirAvg,status,SpdAvg,
2009-08-05, 00:00:04,VALID,999.849,VALID,0,VALID,76.1818,VALID,0,VALID,25.5164,VALID,134,VALID,1.36953,
2009-08-05, 00:01:04,VALID,999.85,VALID,0,VALID,76.5098,VALID,0,VALID,25.4559,VALID,143,VALID,1.44453,
2009-08-05, 00:02:04,VALID,999.801,VALID,0,VALID,76.9829,VALID,0,VALID,25.4383,VALID,137,VALID,1.26055,
2009-08-05, 00:03:04,VALID,999.833,VALID,0,VALID,77.2346,VALID,0,VALID,25.3602,VALID,149,VALID,1.10469,
2009-08-05, 00:04:04,VALID,999.795,VALID,0,VALID,77.3262,VALID,0,VALID,25.3212,VALID,154,VALID,1.3793,
2009-08-05, 00:05:04,VALID,999.762,VALID,0,VALID,77.4712,VALID,0,VALID,25.2821,VALID,159,VALID,0.690625,
2009-08-05, 00:06:04,VALID,999.769,VALID,0,VALID,77.8069,VALID,0,VALID,25.2626,VALID,160,VALID,1.02227,
2009-08-05, 00:07:04,VALID,999.767,VALID,0,VALID,77.8984,VALID,0,VALID,25.2431,VALID,126,VALID,1.07383,
2009-08-05, 00:08:04,VALID,999.765,VALID,0,VALID,77.7535,VALID,0,VALID,25.2236,VALID,130,VALID,1.0457,
2009-08-05, 00:09:04,VALID,999.727,VALID,0,VALID,77.1736,VALID,0,VALID,25.204,VALID,137,VALID,1.77539,
2009-08-05, 00:10:04,VALID,999.744,VALID,0,VALID,77.1049,VALID,0,VALID,25.2431,VALID,149,VALID,1.57695,
2009-08-05, 00:11:04,VALID,999.714,VALID,0,VALID,77.2652,VALID,0,VALID,25.2412,VALID,140,VALID,1.26992,
2009-08-05, 00:12:04,VALID,999.762,VALID,0,VALID,77.4483,VALID,0,VALID,25.2412,VALID,140,VALID,1.30273,
2009-08-05, 00:13:04,VALID,999.752,VALID,0,VALID,77.4788,VALID,0,VALID,25.2431,VALID,140,VALID,1.57383,
2009-08-05, 00:14:04,VALID,999.755,VALID,0,VALID,77.6695,VALID,0,VALID,25.2431,VALID,137,VALID,1.08906,
2009-08-05, 00:15:04,VALID,999.726,VALID,0,VALID,77.6238,VALID,0,VALID,25.2217,VALID,132,VALID,1.34805,
2009-08-05, 00:16:04,VALID,999.767,VALID,0,VALID,77.6161,VALID,0,VALID,25.2236,VALID,133,VALID,2.02187,
2009-08-05, 00:17:04,VALID,999.726,VALID,0,VALID,77.3186,VALID,0,VALID,25.2217,VALID,128,VALID,2.40781,
2009-08-05, 00:18:04,VALID,999.712,VALID,0,VALID,77.2194,VALID,0,VALID,25.2607,VALID,132,VALID,1.94883,
2009-08-05, 00:19:04,VALID,999.712,VALID,0,VALID,77.0515,VALID,0,VALID,25.3017,VALID,139,VALID,2.46445,
2009-08-05, 00:20:04,VALID,999.69,VALID,0,VALID,77.0592,VALID,0,VALID,25.3212,VALID,148,VALID,1.62031,
2009-08-05, 00:21:04,VALID,999.637,VALID,0,VALID,76.8761,VALID,0,VALID,25.3407,VALID,143,VALID,1.4207,
2009-08-05, 00:22:04,VALID,999.655,VALID,0,VALID,76.9676,VALID,0,VALID,25.3407,VALID,158,VALID,1.2875,
2009-08-05, 00:23:04,VALID,999.66,VALID,0,VALID,77.0897,VALID,0,VALID,25.3407,VALID,156,VALID,1.96133,
2009-08-05, 00:24:04,VALID,999.651,VALID,0,VALID,77.1202,VALID,0,VALID,25.3407,VALID,157,VALID,2.08008,
2009-08-05, 00:25:04,VALID,999.66,VALID,0,VALID,76.8684,VALID,0,VALID,25.3602,VALID,154,VALID,1.83281,
2009-08-05, 00:26:04,VALID,999.677,VALID,0,VALID,77.0134,VALID,0,VALID,25.3797,VALID,148,VALID,1.35391,
2009-08-05, 00:27:04,VALID,999.65,VALID,0,VALID,76.7769,VALID,0,VALID,25.3602,VALID,134,VALID,2.40352,
2009-08-05, 00:28:04,VALID,999.686,VALID,0,VALID,76.8913,VALID,0,VALID,25.3797,VALID,136,VALID,2.07617,
2009-08-05, 00:29:04,VALID,999.691,VALID,0,VALID,77.0897,VALID,0,VALID,25.3388,VALID,153,VALID,1.82617,
2009-08-05, 00:30:04,VALID,999.685,VALID,0,VALID,77.3033,VALID,0,VALID,25.3621,VALID,155,VALID,1.93984,
2009-08-05, 00:31:04,VALID,999.71,VALID,0,VALID,77.2575,VALID,0,VALID,25.3193,VALID,152,VALID,2.15352,
2009-08-05, 00:32:04,VALID,999.652,VALID,0,VALID,77.0592,VALID,0,VALID,25.3407,VALID,134,VALID,2.70508,
2009-08-05, 00:33:04,VALID,999.68,VALID,0,VALID,77.021,VALID,0,VALID,25.3602,VALID,141,VALID,2.86953,
2009-08-05, 00:34:04,VALID,999.679,VALID,0,VALID,76.754,VALID,0,VALID,25.3797,VALID,135,VALID,2.61406,
2009-08-05, 00:35:04,VALID,999.696,VALID,0,VALID,76.6853,VALID,0,VALID,25.4188,VALID,143,VALID,2.76992,
2009-08-05, 00:36:04,VALID,999.723,VALID,0,VALID,76.7158,VALID,0,VALID,25.4383,VALID,144,VALID,2.57305,
2009-08-05, 00:37:04,VALID,999.742,VALID,0,VALID,76.9295,VALID,0,VALID,25.4383,VALID,151,VALID,2.18398,
2009-08-05, 00:38:04,VALID,999.737,VALID,0,VALID,77.1965,VALID,0,VALID,25.4188,VALID,146,VALID,1.8293,
2009-08-05, 00:39:04,VALID,999.706,VALID,0,VALID,77.6009,VALID,0,VALID,25.3602,VALID,136,VALID,1.83711,
2009-08-05, 00:40:04,VALID,999.686,VALID,0,VALID,77.8679,VALID,0,VALID,25.2802,VALID,138,VALID,1.14453,
2009-08-05, 00:41:04,VALID,999.649,VALID,0,VALID,77.8755,VALID,0,VALID,25.2431,VALID,140,VALID,1.61563,
2009-08-05, 00:42:04,VALID,999.666,VALID,0,VALID,77.8374,VALID,0,VALID,25.2236,VALID,166,VALID,1.99258,
2009-08-05, 00:43:04,VALID,999.629,VALID,0,VALID,77.6695,VALID,0,VALID,25.2217,VALID,161,VALID,2.23281,
2009-08-05, 00:44:04,VALID,999.617,VALID,0,VALID,77.5475,VALID,0,VALID,25.2412,VALID,152,VALID,1.57773,
2009-08-05, 00:45:04,VALID,999.612,VALID,0,VALID,77.6314,VALID,0,VALID,25.2626,VALID,156,VALID,1.75352,
2009-08-05, 00:46:04,VALID,999.633,VALID,0,VALID,77.5704,VALID,0,VALID,25.2626,VALID,163,VALID,2.52148,
2009-08-05, 00:47:04,VALID,999.612,VALID,0,VALID,77.3643,VALID,0,VALID,25.3017,VALID,167,VALID,2.24453,
2009-08-05, 00:48:04,VALID,999.645,VALID,0,VALID,77.3643,VALID,0,VALID,25.3212,VALID,149,VALID,1.87148,
2009-08-05, 00:49:04,VALID,999.642,VALID,0,VALID,77.3033,VALID,0,VALID,25.3212,VALID,162,VALID,2.19727,
2009-08-05, 00:50:04,VALID,999.615,VALID,0,VALID,77.1889,VALID,0,VALID,25.3407,VALID,162,VALID,2.86172,
2009-08-05, 00:51:04,VALID,999.577,VALID,0,VALID,77.1812,VALID,0,VALID,25.3602,VALID,157,VALID,2.40156,
2009-08-05, 00:52:04,VALID,999.54,VALID,0,VALID,77.1889,VALID,0,VALID,25.3602,VALID,147,VALID,2.21328,
2009-08-05, 00:53:04,VALID,999.48,VALID,0,VALID,77.166,VALID,0,VALID,25.3388,VALID,152,VALID,2.38398,
2009-08-05, 00:54:04,VALID,999.49,VALID,0,VALID,77.1583,VALID,0,VALID,25.3602,VALID,149,VALID,2.17969,
2009-08-05, 00:55:04,VALID,999.451,VALID,0,VALID,77.2041,VALID,0,VALID,25.3407,VALID,151,VALID,2.29805,
2009-08-05, 00:56:04,VALID,999.455,VALID,0,VALID,77.2957,VALID,0,VALID,25.3602,VALID,161,VALID,1.91992,
2009-08-05, 00:57:04,VALID,999.399,VALID,0,VALID,77.2423,VALID,0,VALID,25.3193,VALID,161,VALID,2.14805,
2009-08-05, 00:58:04,VALID,999.35,VALID,0,VALID,77.2118,VALID,0,VALID,25.3193,VALID,159,VALID,1.72969,
2009-08-05, 00:59:04,VALID,999.348,VALID,0,VALID,77.166,VALID,0,VALID,25.3193,VALID,158,VALID,2.24258,
2009-08-05, 01:00:04,VALID,999.33,VALID,0,VALID,77.1126,VALID,0,VALID,25.3388,VALID,131,VALID,1.86016,
2009-08-05, 01:01:04,VALID,999.391,VALID,0,VALID,77.2728,VALID,0,VALID,25.3193,VALID,141,VALID,1.72773,
2009-08-05, 01:02:04,VALID,999.386,VALID,0,VALID,77.4788,VALID,0,VALID,25.3017,VALID,135,VALID,2.01289,
2009-08-05, 01:03:04,VALID,999.446,VALID,0,VALID,77.3949,VALID,0,VALID,25.2821,VALID,146,VALID,1.75078,
2009-08-05, 01:04:04,VALID,999.444,VALID,0,VALID,77.1812,VALID,0,VALID,25.3212,VALID,153,VALID,1.4582,
2009-08-05, 01:05:04,VALID,999.42,VALID,0,VALID,77.2346,VALID,0,VALID,25.3407,VALID,153,VALID,1.18867,
2009-08-05, 01:06:04,VALID,999.405,VALID,0,VALID,77.4101,VALID,0,VALID,25.3212,VALID,155,VALID,1.39414,
2009-08-05, 01:07:04,VALID,999.395,VALID,0,VALID,77.5856,VALID,0,VALID,25.2821,VALID,157,VALID,0.907031,
2009-08-05, 01:08:04,VALID,999.372,VALID,0,VALID,77.7535,VALID,0,VALID,25.2431,VALID,158,VALID,1.03203,
2009-08-05, 01:09:04,VALID,999.401,VALID,0,VALID,77.8755,VALID,0,VALID,25.2236,VALID,159,VALID,1.44961,
2009-08-05, 01:10:04,VALID,999.378,VALID,0,VALID,77.7916,VALID,0,VALID,25.2236,VALID,153,VALID,1.50781,
2009-08-05, 01:11:04,VALID,999.38,VALID,0,VALID,77.7458,VALID,0,VALID,25.2236,VALID,155,VALID,1.52031,
2009-08-05, 01:12:04,VALID,999.352,VALID,0,VALID,77.7687,VALID,0,VALID,25.2236,VALID,154,VALID,1.31953,
2009-08-05, 01:13:04,VALID,999.339,VALID,0,VALID,77.8374,VALID,0,VALID,25.2021,VALID,150,VALID,1.17031,
2009-08-05, 01:14:04,VALID,999.323,VALID,0,VALID,77.7763,VALID,0,VALID,25.204,VALID,149,VALID,1.12578,
2009-08-05, 01:15:04,VALID,999.322,VALID,0,VALID,77.7763,VALID,0,VALID,25.204,VALID,162,VALID,1.07813,
2009-08-05, 01:16:04,VALID,999.28,VALID,0,VALID,77.4788,VALID,0,VALID,25.1845,VALID,159,VALID,1.2293,
2009-08-05, 01:17:04,VALID,999.27,VALID,0,VALID,77.2499,VALID,0,VALID,25.2431,VALID,153,VALID,1.84687,
2009-08-05, 01:18:04,VALID,999.264,VALID,0,VALID,77.2346,VALID,0,VALID,25.2626,VALID,161,VALID,1.69648,
2009-08-05, 01:19:04,VALID,999.261,VALID,0,VALID,77.2499,VALID,0,VALID,25.2821,VALID,174,VALID,2.05234,
2009-08-05, 01:20:04,VALID,999.252,VALID,0,VALID,77.1126,VALID,0,VALID,25.2821,VALID,173,VALID,1.72227,
2009-08-05, 01:21:04,VALID,999.258,VALID,0,VALID,77.0973,VALID,0,VALID,25.3017,VALID,168,VALID,1.46563,
2009-08-05, 01:22:04,VALID,999.26,VALID,0,VALID,76.9981,VALID,0,VALID,25.3017,VALID,177,VALID,1.24883,
2009-08-05, 01:23:04,VALID,999.199,VALID,0,VALID,76.8608,VALID,0,VALID,25.3212,VALID,179,VALID,1.35234,
2009-08-05, 01:24:04,VALID,999.238,VALID,0,VALID,76.6777,VALID,0,VALID,25.3602,VALID,181,VALID,1.31797,
2009-08-05, 01:25:04,VALID,999.23,VALID,0,VALID,76.4717,VALID,0,VALID,25.3797,VALID,175,VALID,1.13555,
2009-08-05, 01:26:04,VALID,999.192,VALID,0,VALID,76.4183,VALID,0,VALID,25.4188,VALID,159,VALID,1.1457,
2009-08-05, 01:27:04,VALID,999.186,VALID,0,VALID,76.4793,VALID,0,VALID,25.3993,VALID,138,VALID,1.18477,
2009-08-05, 01:28:04,VALID,999.201,VALID,0,VALID,76.6777,VALID,0,VALID,25.3797,VALID,150,VALID,1.1668,
2009-08-05, 01:29:04,VALID,999.166,VALID,0,VALID,76.9905,VALID,0,VALID,25.3017,VALID,140,VALID,1.06484,
2009-08-05, 01:30:04,VALID,999.181,VALID,0,VALID,77.3186,VALID,0,VALID,25.2236,VALID,137,VALID,1.14805,
2009-08-05, 01:31:04,VALID,999.222,VALID,0,VALID,77.6238,VALID,0,VALID,25.1436,VALID,144,VALID,1.54766,
2009-08-05, 01:32:04,VALID,999.18,VALID,0,VALID,77.9061,VALID,0,VALID,25.1064,VALID,139,VALID,1.15469,
2009-08-05, 01:33:04,VALID,999.134,VALID,0,VALID,78.0052,VALID,0,VALID,25.046,VALID,138,VALID,1.24961,
2009-08-05, 01:34:04,VALID,999.126,VALID,0,VALID,78.1121,VALID,0,VALID,25.0479,VALID,146,VALID,0.91875,
2009-08-05, 01:35:04,VALID,999.077,VALID,0,VALID,78.1349,VALID,0,VALID,25.0069,VALID,150,VALID,1.15352,
2009-08-05, 01:36:04,VALID,999.096,VALID,0,VALID,77.8832,VALID,0,VALID,25.0479,VALID,155,VALID,1.74336,
2009-08-05, 01:37:04,VALID,999.044,VALID,0,VALID,77.7763,VALID,0,VALID,25.0655,VALID,156,VALID,1.17852,
2009-08-05, 01:38:04,VALID,999.024,VALID,0,VALID,77.6772,VALID,0,VALID,25.0655,VALID,149,VALID,1.10039,
2009-08-05, 01:39:04,VALID,998.977,VALID,0,VALID,77.5246,VALID,0,VALID,25.1064,VALID,133,VALID,1.0418,
2009-08-05, 01:40:04,VALID,999.055,VALID,0,VALID,77.6619,VALID,0,VALID,25.1064,VALID,174,VALID,1.0957,
2009-08-05, 01:41:04,VALID,999.024,VALID,0,VALID,77.5551,VALID,0,VALID,25.1241,VALID,163,VALID,1.08203,
2009-08-05, 01:42:04,VALID,999.04,VALID,0,VALID,77.2575,VALID,0,VALID,25.165,VALID,154,VALID,0.778906,
2009-08-05, 01:43:04,VALID,999.021,VALID,0,VALID,77.1583,VALID,0,VALID,25.1436,VALID,150,VALID,0.994922,
2009-08-05, 01:44:04,VALID,999.042,VALID,0,VALID,77.0897,VALID,0,VALID,25.1845,VALID,146,VALID,1.24375,
2009-08-05, 01:45:04,VALID,998.987,VALID,0,VALID,77.0134,VALID,0,VALID,25.204,VALID,134,VALID,1.12656,
2009-08-05, 01:46:04,VALID,998.967,VALID,0,VALID,77.021,VALID,0,VALID,25.2021,VALID,136,VALID,0.938281,
2009-08-05, 01:47:04,VALID,998.99,VALID,0,VALID,77.0821,VALID,0,VALID,25.204,VALID,132,VALID,1.03242,
2009-08-05, 01:48:04,VALID,998.985,VALID,0,VALID,77.1202,VALID,0,VALID,25.1631,VALID,135,VALID,1.12305,
2009-08-05, 01:49:04,VALID,998.986,VALID,0,VALID,77.3491,VALID,0,VALID,25.1455,VALID,144,VALID,1.16445,
2009-08-05, 01:50:04,VALID,998.977,VALID,0,VALID,77.578,VALID,0,VALID,25.1064,VALID,142,VALID,0.490625,
2009-08-05, 01:51:04,VALID,999.016,VALID,0,VALID,77.6314,VALID,0,VALID,25.046,VALID,163,VALID,0.966797,
2009-08-05, 01:52:04,VALID,998.963,VALID,0,VALID,77.5551,VALID,0,VALID,25.0674,VALID,157,VALID,1.38984,
2009-08-05, 01:53:04,VALID,998.964,VALID,0,VALID,77.1889,VALID,0,VALID,25.126,VALID,144,VALID,1.44258,
2009-08-05, 01:54:04,VALID,998.949,VALID,0,VALID,77.0897,VALID,0,VALID,25.1455,VALID,166,VALID,0.825781,
2009-08-05, 01:55:04,VALID,998.922,VALID,0,VALID,76.9676,VALID,0,VALID,25.165,VALID,141,VALID,0.782422,
2009-08-05, 01:56:04,VALID,998.931,VALID,0,VALID,76.9523,VALID,0,VALID,25.165,VALID,142,VALID,0.766406,
2009-08-05, 01:57:04,VALID,998.93,VALID,0,VALID,76.8532,VALID,0,VALID,25.1845,VALID,149,VALID,0.899219,
2009-08-05, 01:58:04,VALID,998.875,VALID,0,VALID,76.8379,VALID,0,VALID,25.1826,VALID,119,VALID,1.04453,
2009-08-05, 01:59:04,VALID,998.917,VALID,0,VALID,76.9523,VALID,0,VALID,25.1845,VALID,121,VALID,1.08594,
2009-08-05, 02:00:04,VALID,998.915,VALID,0,VALID,77.1278,VALID,0,VALID,25.1241,VALID,148,VALID,1.21719,
2009-08-05, 02:01:04,VALID,998.933,VALID,0,VALID,77.2652,VALID,0,VALID,25.126,VALID,175,VALID,1.00156,
2009-08-05, 02:02:04,VALID,998.903,VALID,0,VALID,77.3109,VALID,0,VALID,25.0869,VALID,172,VALID,1.15937,
2009-08-05, 02:03:04,VALID,998.895,VALID,0,VALID,77.1278,VALID,0,VALID,25.1064,VALID,179,VALID,1.06406,
2009-08-05, 02:04:04,VALID,998.88,VALID,0,VALID,77.0973,VALID,0,VALID,25.1045,VALID,171,VALID,1.26523,
2009-08-05, 02:05:04,VALID,998.853,VALID,0,VALID,77.0973,VALID,0,VALID,25.1241,VALID,152,VALID,1.20508,
2009-08-05, 02:06:04,VALID,998.88,VALID,0,VALID,77.0439,VALID,0,VALID,25.126,VALID,165,VALID,1.38906,
2009-08-05, 02:07:04,VALID,998.873,VALID,0,VALID,76.9676,VALID,0,VALID,25.126,VALID,172,VALID,1.59219,
2009-08-05, 02:08:04,VALID,998.834,VALID,0,VALID,76.7769,VALID,0,VALID,25.1241,VALID,145,VALID,1.30742,
2009-08-05, 02:09:04,VALID,998.853,VALID,0,VALID,76.609,VALID,0,VALID,25.1436,VALID,153,VALID,1.86484,
2009-08-05, 02:10:04,VALID,998.838,VALID,0,VALID,76.4259,VALID,0,VALID,25.204,VALID,162,VALID,1.36406,
2009-08-05, 02:11:04,VALID,998.821,VALID,0,VALID,76.3801,VALID,0,VALID,25.2236,VALID,149,VALID,1.59141,
2009-08-05, 02:12:04,VALID,998.809,VALID,0,VALID,76.4869,VALID,0,VALID,25.2021,VALID,153,VALID,1.69531,
2009-08-05, 02:13:04,VALID,998.803,VALID,0,VALID,76.5785,VALID,0,VALID,25.1845,VALID,161,VALID,1.54805,
2009-08-05, 02:14:04,VALID,998.757,VALID,0,VALID,76.6929,VALID,0,VALID,25.165,VALID,169,VALID,1.60547,
2009-08-05, 02:15:04,VALID,998.755,VALID,0,VALID,76.609,VALID,0,VALID,25.165,VALID,153,VALID,1.61367,
2009-08-05, 02:16:04,VALID,998.738,VALID,0,VALID,76.4488,VALID,0,VALID,25.1826,VALID,171,VALID,1.10977,
2009-08-05, 02:17:04,VALID,998.737,VALID,0,VALID,76.5098,VALID,0,VALID,25.204,VALID,162,VALID,1.5082,
2009-08-05, 02:18:04,VALID,998.702,VALID,0,VALID,76.5556,VALID,0,VALID,25.1845,VALID,162,VALID,1.80117,
2009-08-05, 02:19:04,VALID,998.671,VALID,0,VALID,76.5861,VALID,0,VALID,25.1631,VALID,153,VALID,1.92695,
2009-08-05, 02:20:04,VALID,998.671,VALID,0,VALID,76.5785,VALID,0,VALID,25.1845,VALID,141,VALID,2.4082,
2009-08-05, 02:21:04,VALID,998.667,VALID,0,VALID,76.8074,VALID,0,VALID,25.1241,VALID,150,VALID,1.7375,
2009-08-05, 02:22:04,VALID,998.62,VALID,0,VALID,76.2504,VALID,0.112286,VALID,25.1064,VALID,141,VALID,2.74453,
2009-08-05, 02:23:04,VALID,998.602,VALID,0,VALID,76.9905,VALID,0,VALID,25.1045,VALID,136,VALID,2.14102,
2009-08-05, 02:24:04,VALID,998.598,VALID,0,VALID,77.2346,VALID,0,VALID,25.0655,VALID,150,VALID,1.83555,
2009-08-05, 02:25:04,VALID,998.576,VALID,0,VALID,77.4788,VALID,0,VALID,25.0069,VALID,146,VALID,1.8082,
2009-08-05, 02:26:04,VALID,998.586,VALID,0,VALID,77.8526,VALID,0,VALID,24.9484,VALID,136,VALID,1.90898,
2009-08-05, 02:27:04,VALID,998.602,VALID,0,VALID,77.7916,VALID,0,VALID,24.9289,VALID,135,VALID,2.46328,
2009-08-05, 02:28:04,VALID,998.562,VALID,0,VALID,77.99,VALID,0,VALID,24.9093,VALID,131,VALID,1.76523,
2009-08-05, 02:29:04,VALID,998.535,VALID,0,VALID,78.0739,VALID,0,VALID,24.8703,VALID,134,VALID,1.64609,
2009-08-05, 02:30:04,VALID,998.555,VALID,0,VALID,78.196,VALID,0,VALID,24.8313,VALID,145,VALID,1.2375,
2009-08-05, 02:31:04,VALID,998.517,VALID,0,VALID,78.2494,VALID,0,VALID,24.8136,VALID,133,VALID,1.21367,
2009-08-05, 02:32:04,VALID,998.557,VALID,0,VALID,78.3715,VALID,0,VALID,24.7922,VALID,132,VALID,1.52148,
2009-08-05, 02:33:04,VALID,998.537,VALID,0,VALID,78.5469,VALID,0,VALID,24.7727,VALID,134,VALID,1.70469,
2009-08-05, 02:34:04,VALID,998.542,VALID,0,VALID,78.5317,VALID,0,VALID,24.7551,VALID,141,VALID,1.91094,
2009-08-05, 02:35:04,VALID,998.51,VALID,0,VALID,78.3486,VALID,0,VALID,24.7727,VALID,160,VALID,1.66445,
2009-08-05, 02:36:04,VALID,998.465,VALID,0,VALID,77.9671,VALID,0,VALID,24.8722,VALID,140,VALID,1.63359,
2009-08-05, 02:37:04,VALID,998.48,VALID,0,VALID,77.8298,VALID,0,VALID,24.9093,VALID,136,VALID,1.60664,
2009-08-05, 02:38:04,VALID,998.453,VALID,0,VALID,77.9595,VALID,0,VALID,24.9308,VALID,135,VALID,1.1793,
2009-08-05, 02:39:04,VALID,998.444,VALID,0,VALID,78.1578,VALID,0,VALID,24.9112,VALID,127,VALID,0.987109,
2009-08-05, 02:40:04,VALID,998.438,VALID,0,VALID,78.5012,VALID,0,VALID,24.8117,VALID,125,VALID,1.22695,
2009-08-05, 02:41:04,VALID,998.456,VALID,0,VALID,78.7453,VALID,0,VALID,24.7532,VALID,133,VALID,1.26797,
2009-08-05, 02:42:04,VALID,998.48,VALID,0,VALID,78.7453,VALID,0,VALID,24.7551,VALID,139,VALID,1.08008,
2009-08-05, 02:43:04,VALID,998.467,VALID,0,VALID,78.7758,VALID,0,VALID,24.7142,VALID,154,VALID,1.12695,
2009-08-05, 02:44:04,VALID,998.451,VALID,0,VALID,78.8063,VALID,0,VALID,24.7142,VALID,156,VALID,1.13945,
2009-08-05, 02:45:04,VALID,998.431,VALID,0,VALID,78.7682,VALID,0,VALID,24.7551,VALID,148,VALID,1.27266,
2009-08-05, 02:46:04,VALID,998.396,VALID,0,VALID,78.7148,VALID,0,VALID,24.7337,VALID,145,VALID,1.53242,
2009-08-05, 02:47:04,VALID,998.401,VALID,0,VALID,78.6614,VALID,0,VALID,24.7532,VALID,142,VALID,1.10938,
2009-08-05, 02:48:04,VALID,998.358,VALID,0,VALID,78.6995,VALID,0,VALID,24.7727,VALID,144,VALID,1.21016,
2009-08-05, 02:49:04,VALID,998.39,VALID,0,VALID,78.8292,VALID,0.112286,VALID,24.7532,VALID,142,VALID,0.914063,
2009-08-05, 02:50:04,VALID,998.37,VALID,0,VALID,79.02,VALID,0,VALID,24.6946,VALID,153,VALID,1.12148,
2009-08-05, 02:51:04,VALID,998.4,VALID,0,VALID,79.1421,VALID,0,VALID,24.6556,VALID,150,VALID,1.12188,
2009-08-05, 02:52:04,VALID,998.38,VALID,0,VALID,79.226,VALID,0,VALID,24.6361,VALID,145,VALID,1.04922,
2009-08-05, 02:53:04,VALID,998.382,VALID,0,VALID,79.2107,VALID,0,VALID,24.6556,VALID,149,VALID,1.71797,
2009-08-05, 02:54:04,VALID,998.331,VALID,0,VALID,79.1726,VALID,0,VALID,24.6361,VALID,161,VALID,1.52266,
2009-08-05, 02:55:04,VALID,998.298,VALID,0,VALID,79.0963,VALID,0,VALID,24.6751,VALID,139,VALID,1.74961,
2009-08-05, 02:56:04,VALID,998.302,VALID,0,VALID,79.0352,VALID,0,VALID,24.6946,VALID,141,VALID,1.7625,
2009-08-05, 02:57:04,VALID,998.264,VALID,0,VALID,79.1039,VALID,0,VALID,24.6965,VALID,142,VALID,1.6043,
2009-08-05, 02:58:04,VALID,998.241,VALID,0,VALID,79.0352,VALID,0,VALID,24.677,VALID,147,VALID,1.36875,
2009-08-05, 02:59:04,VALID,998.27,VALID,0,VALID,79.0886,VALID,0,VALID,24.6984,VALID,156,VALID,1.5168,
2009-08-05, 03:00:04,VALID,998.303,VALID,0,VALID,79.1497,VALID,0,VALID,24.6984,VALID,151,VALID,1.37695,
2009-08-05, 03:01:04,VALID,998.251,VALID,0,VALID,79.2794,VALID,0,VALID,24.677,VALID,137,VALID,0.994141,
2009-08-05, 03:02:04,VALID,998.268,VALID,0,VALID,79.3862,VALID,0,VALID,24.6594,VALID,153,VALID,1.3168,
2009-08-05, 03:03:04,VALID,998.27,VALID,0,VALID,79.493,VALID,0,VALID,24.6398,VALID,149,VALID,1.12969,
2009-08-05, 03:04:04,VALID,998.27,VALID,0,VALID,79.5922,VALID,0,VALID,24.5989,VALID,135,VALID,1.31992,
2009-08-05, 03:05:04,VALID,998.239,VALID,0,VALID,79.6303,VALID,0,VALID,24.5599,VALID,120,VALID,0.735156,
2009-08-05, 03:06:04,VALID,998.292,VALID,0,VALID,79.8287,VALID,0,VALID,24.5013,VALID,169,VALID,0.583984,
2009-08-05, 03:07:04,VALID,998.279,VALID,0,VALID,80.1339,VALID,0,VALID,24.4233,VALID,128,VALID,0.8625,
2009-08-05, 03:08:04,VALID,998.25,VALID,0,VALID,80.256,VALID,0,VALID,24.4233,VALID,134,VALID,1.2957,
2009-08-05, 03:09:04,VALID,998.241,VALID,0,VALID,80.1186,VALID,0,VALID,24.4837,VALID,127,VALID,0.744141,
2009-08-05, 03:10:04,VALID,998.232,VALID,0,VALID,80.0729,VALID,0,VALID,24.4623,VALID,127,VALID,1.00625,
2009-08-05, 03:11:04,VALID,998.25,VALID,0,VALID,79.8287,VALID,0,VALID,24.5032,VALID,132,VALID,1.03125,
2009-08-05, 03:12:04,VALID,998.266,VALID,0,VALID,79.9355,VALID,0,VALID,24.48,VALID,130,VALID,0.904297,
2009-08-05, 03:13:04,VALID,998.211,VALID,0,VALID,79.9889,VALID,0,VALID,24.4818,VALID,131,VALID,0.783203,
2009-08-05, 03:14:04,VALID,998.233,VALID,0,VALID,79.9355,VALID,0,VALID,24.4623,VALID,136,VALID,0.673437,
2009-08-05, 03:15:04,VALID,998.29,VALID,0,VALID,80.1568,VALID,0.112286,VALID,24.4409,VALID,160,VALID,0.895703,
2009-08-05, 03:16:04,VALID,998.276,VALID,0,VALID,80.0195,VALID,0,VALID,24.4428,VALID,152,VALID,1.17539,
2009-08-05, 03:17:04,VALID,998.243,VALID,0,VALID,79.8669,VALID,0,VALID,24.5013,VALID,155,VALID,1.27109,
2009-08-05, 03:18:04,VALID,998.229,VALID,0,VALID,79.7066,VALID,0,VALID,24.5599,VALID,169,VALID,0.901172,
2009-08-05, 03:19:04,VALID,998.168,VALID,0,VALID,79.4854,VALID,0,VALID,24.5794,VALID,155,VALID,0.631641,
2009-08-05, 03:20:04,VALID,998.172,VALID,0,VALID,79.4701,VALID,0,VALID,24.5971,VALID,179,VALID,0.851563,
2009-08-05, 03:21:04,VALID,998.176,VALID,0,VALID,79.3633,VALID,0,VALID,24.638,VALID,160,VALID,1.38945,
2009-08-05, 03:22:04,VALID,998.117,VALID,0,VALID,79.1497,VALID,0,VALID,24.677,VALID,128,VALID,0.652344,
2009-08-05, 03:23:04,VALID,998.108,VALID,0,VALID,78.9818,VALID,0,VALID,24.6575,VALID,144,VALID,1.36328,
2009-08-05, 03:24:04,VALID,998.116,VALID,0,VALID,79.3023,VALID,0,VALID,24.6166,VALID,148,VALID,1.62695,
2009-08-05, 03:25:04,VALID,998.057,VALID,0,VALID,79.5464,VALID,0,VALID,24.5989,VALID,154,VALID,1.16914,
2009-08-05, 03:26:04,VALID,998.07,VALID,0,VALID,79.6456,VALID,0,VALID,24.6184,VALID,147,VALID,1.26484,
2009-08-05, 03:27:04,VALID,998.101,VALID,0,VALID,79.5312,VALID,0,VALID,24.638,VALID,164,VALID,1.08828,
2009-08-05, 03:28:04,VALID,998.131,VALID,0,VALID,79.6838,VALID,0,VALID,24.6166,VALID,171,VALID,1.59219,
2009-08-05, 03:29:04,VALID,998.142,VALID,0,VALID,79.6532,VALID,0,VALID,24.638,VALID,140,VALID,1.36875,
2009-08-05, 03:30:04,VALID,998.126,VALID,0,VALID,79.7066,VALID,0,VALID,24.638,VALID,139,VALID,1.52031,
2009-08-05, 03:31:04,VALID,998.146,VALID,0,VALID,79.7524,VALID,0,VALID,24.6184,VALID,146,VALID,1.6168,
2009-08-05, 03:32:04,VALID,998.122,VALID,0,VALID,79.7524,VALID,0,VALID,24.6184,VALID,150,VALID,1.23477,
2009-08-05, 03:33:04,VALID,998.11,VALID,0,VALID,79.8363,VALID,0,VALID,24.5989,VALID,158,VALID,1.50039,
2009-08-05, 03:34:04,VALID,998.1,VALID,0,VALID,79.8211,VALID,0,VALID,24.5971,VALID,161,VALID,1.80977,
2009-08-05, 03:35:04,VALID,998.054,VALID,0,VALID,79.8058,VALID,0,VALID,24.638,VALID,148,VALID,1.5207,
2009-08-05, 03:36:04,VALID,998.044,VALID,0,VALID,79.7829,VALID,0,VALID,24.6361,VALID,158,VALID,1.45078,
2009-08-05, 03:37:04,VALID,998.037,VALID,0,VALID,79.8516,VALID,0,VALID,24.6575,VALID,156,VALID,1.90469,
2009-08-05, 03:38:04,VALID,998.031,VALID,0,VALID,79.7677,VALID,0,VALID,24.677,VALID,151,VALID,1.64844,
2009-08-05, 03:39:04,VALID,998.017,VALID,0,VALID,79.6761,VALID,0,VALID,24.6965,VALID,152,VALID,1.6125,
2009-08-05, 03:40:04,VALID,997.997,VALID,0,VALID,79.6609,VALID,0,VALID,24.6965,VALID,151,VALID,1.16875,
2009-08-05, 03:41:04,VALID,998.017,VALID,0,VALID,79.8058,VALID,0,VALID,24.6361,VALID,146,VALID,1.275,
2009-08-05, 03:42:04,VALID,998.008,VALID,0,VALID,80.0347,VALID,0,VALID,24.5971,VALID,144,VALID,1.88359,
2009-08-05, 03:43:04,VALID,997.984,VALID,0,VALID,80.0652,VALID,0,VALID,24.6184,VALID,145,VALID,1.83594,
2009-08-05, 03:44:04,VALID,997.976,VALID,0,VALID,80.0881,VALID,0,VALID,24.5971,VALID,145,VALID,1.77891,
2009-08-05, 03:45:04,VALID,997.959,VALID,0,VALID,80.0652,VALID,0,VALID,24.5775,VALID,148,VALID,1.54492,
2009-08-05, 03:46:04,VALID,997.931,VALID,0,VALID,80.1644,VALID,0,VALID,24.5775,VALID,147,VALID,1.41719,